Home > Weather > Adak > Past weeks

Flag for U.S.A. Weather for the Past 2 Weeks in Adak, Alaska, U.S.A.

Now
37 °F

Overcast.


Feels Like: 32 °F
Forecast: 35 / 38 °F
Wind: 7 mph from North

Location: Adak

Current Time: Feb 12, 2016 at 2:31:38 PM

Latest Report: Feb 12, 2016 at 1:56 PM


Visibility: 10 mi

Pressure: 28.99 "Hg

Humidity: 65%

Dew point: 27 °F

Location of AdakLocation

Historic Weather in Adak — Graph

°F

Adak Temperature Yesterday

Maximum temperature yesterday: 36 °F (at 5:36 AM)
Minimum temperature yesterday: 30 °F (at 3:16 AM)
Average temperature yesterday: 35 °F

High & Low Weather Summary for the Past Weeks

 TemperatureHumidityPressure
High39 °F (Feb 10, 2:36 PM)81% (Jan 29, 12:36 AM)29.75 "Hg (Jan 29, 12:36 AM)
Low9 °F (Feb 2, 7:36 AM)43% (Feb 6, 7:56 PM)28.56 "Hg (Jan 30, 9:16 AM)
Average31 °F67%29.21 "Hg
* Reported Jan 28 12:36 PM — Feb 12 12:56 PM, Adak, Weather by CustomWeather, © 2016

Note: Actual official high and low records may vary slightly from our data, if they occured in-between our weather recording intervals... More about our weather records

Advertising

Adak Weather History for the Previous 24 Hours

 ConditionsComfort  
Time TempWeatherWind HumidityBarometerVisibility
12:56 PM
Fri, Feb 12
36 °FOvercast.13 mph70%29.00 "Hg10 mi
12:36 PM36 °FOvercast.9 mph65%29.00 "Hg10 mi
12:16 PM37 °FPartly sunny.12 mph65%29.00 "Hg10 mi
11:36 AM36 °FPartly sunny.8 mph70%29.00 "Hg10 mi
10:56 AM36 °FScattered clouds.13 mph70%29.00 "Hg10 mi
10:36 AM36 °FBroken clouds.12 mph70%29.00 "Hg10 mi
10:16 AM34 °FPartly sunny.9 mph75%29.00 "Hg10 mi
9:56 AM36 °FBroken clouds.13 mph70%29.00 "Hg10 mi
9:36 AM36 °FBroken clouds.14 mph70%29.00 "Hg10 mi
9:16 AM36 °FMore clouds than sun.13 mph70%29.01 "Hg10 mi
8:56 AM36 °FMore clouds than sun.9 mph70%29.00 "Hg10 mi
8:36 AM36 °FOvercast.15 mph70%29.00 "Hg10 mi
8:16 AM36 °FMostly cloudy.16 mph70%29.00 "Hg10 mi
7:56 AM36 °FMostly cloudy.15 mph70%29.00 "Hg10 mi
7:36 AM36 °FMostly cloudy.13 mph70%29.01 "Hg10 mi
7:16 AM36 °FOvercast.15 mph70%29.01 "Hg10 mi
6:56 AM36 °FOvercast.15 mph70%29.01 "Hg10 mi
6:36 AM36 °FPartly cloudy.16 mph70%29.01 "Hg10 mi
6:16 AM36 °FPassing clouds.15 mph70%29.01 "Hg10 mi
5:56 AM36 °FPartly cloudy.13 mph70%29.02 "Hg10 mi
5:36 AM36 °FMostly cloudy.12 mph70%29.02 "Hg10 mi
5:16 AM36 °FMostly cloudy.13 mph70%29.03 "Hg10 mi
4:56 AM36 °FMostly cloudy.15 mph70%29.03 "Hg10 mi
4:36 AM36 °FMostly cloudy.13 mph70%29.04 "Hg10 mi
4:16 AM36 °FMostly cloudy.13 mph70%29.04 "Hg10 mi
3:56 AM36 °FMostly cloudy.15 mph70%29.04 "Hg10 mi
3:36 AM36 °FOvercast.13 mph70%29.05 "Hg10 mi
3:16 AM36 °FPartly cloudy.15 mph70%29.05 "Hg10 mi
2:56 AM36 °FOvercast.14 mph70%29.05 "Hg10 mi
2:36 AM36 °FMostly cloudy.13 mph70%29.05 "Hg10 mi
1:56 AM34 °FMostly cloudy.14 mph75%29.07 "Hg9 mi
1:36 AM34 °FMostly cloudy.8 mph75%29.07 "Hg10 mi
1:16 AM36 °FOvercast.14 mph70%29.08 "Hg10 mi
12:56 AM36 °FMostly cloudy.13 mph70%29.08 "Hg10 mi
12:36 AM36 °FPassing clouds.14 mph70%29.09 "Hg10 mi
12:16 AM36 °FOvercast.14 mph65%29.09 "Hg10 mi
11:56 PM
Thu, Feb 11
36 °FOvercast.14 mph70%29.10 "Hg10 mi
11:36 PM36 °FOvercast.13 mph70%29.10 "Hg10 mi
11:16 PM36 °FOvercast.12 mph65%29.10 "Hg10 mi
10:56 PM36 °FOvercast.12 mph70%29.11 "Hg10 mi
10:36 PM36 °FOvercast.12 mph70%29.11 "Hg10 mi
10:16 PM36 °FMostly cloudy.13 mph70%29.11 "Hg10 mi
9:56 PM36 °FMostly cloudy.14 mph65%29.12 "Hg10 mi
9:36 PM36 °FOvercast.13 mph70%29.12 "Hg10 mi
9:16 PM36 °FOvercast.15 mph70%29.13 "Hg10 mi
8:56 PM36 °FOvercast.14 mph70%29.13 "Hg10 mi
8:36 PM36 °FOvercast.9 mph70%29.13 "Hg10 mi
8:16 PM36 °FPartly cloudy.14 mph70%29.14 "Hg10 mi
7:56 PM36 °FOvercast.15 mph70%29.15 "Hg10 mi
7:36 PM36 °FOvercast.12 mph70%29.15 "Hg10 mi
6:56 PM36 °FPassing clouds.14 mph70%29.16 "Hg10 mi
6:16 PM36 °FMostly cloudy.13 mph70%29.16 "Hg10 mi
5:56 PM36 °FOvercast.13 mph70%29.16 "Hg10 mi
5:36 PM36 °FMostly cloudy.13 mph70%29.16 "Hg10 mi
4:56 PM36 °FOvercast.8 mph70%29.17 "Hg10 mi
4:36 PM36 °FOvercast.9 mph70%29.18 "Hg10 mi
3:56 PM36 °FMore clouds than sun.12 mph70%29.19 "Hg10 mi
3:36 PM36 °FMore clouds than sun.10 mph70%29.20 "Hg10 mi
3:16 PM36 °FOvercast.10 mph70%29.21 "Hg10 mi
2:56 PM36 °FOvercast.12 mph70%29.22 "Hg10 mi
2:36 PM36 °FOvercast.12 mph70%29.23 "Hg10 mi
2:16 PM36 °FOvercast.8 mph70%29.23 "Hg10 mi
Weather by CustomWeather, © 2016

See weather overviewHow to use our weather pages